[[{"header":{"parameterUnit":"m.s-1","parameterCategory":2,"la1":30.2991,"la2":30.254,"lo1":-89.0895,"lo2":-89.0444,"dy":0.0017,"dx":0.0017,"nx":28,"ny":28,"refTime":"2025-03-21T09:00:00:Z","depth":"0","parameterNumber":2,"parameterNumberName":"U-component_of_CURRENTS"},"data":[0,0,0,0,0,0,0,0,0,0,0,0,0,0,0,0,0,0,0,0,0,0,0,0,0,0,0,0,0,0,0,0,0,0,0,0,0,0,0,0,0,0,0,0,0,0,0,0,0,0,0,0,0,0,0,0,0,0,-0.2929,-0.2932,0,-0.3193,-0.3195,-0.3198,-0.3326,-0.3326,-0.3326,-0.3326,-0.3402,-0.3403,-0.3405,0,0,0,0,0,0,0,0,0,0,0,0,0,-0.2654,-0.2658,-0.2929,-0.2932,-0.2936,-0.3192,-0.3195,-0.3199,-0.3326,-0.3326,-0.3326,-0.3327,-0.3401,-0.3403,-0.3405,0,0,0,0,0,0,0,0,0,0,0,0,0,-0.2828,-0.2659,-0.2928,-0.3033,-0.3045,-0.3191,-0.3195,-0.32,-0.3326,-0.3326,-0.3326,-0.3327,-0.34,-0.3403,-0.3406,-0.3414,0,0,-0.3414,-0.3415,0,0,0,0,0,0,0,0,-0.2817,-0.2837,-0.3014,-0.3026,-0.304,-0.323,-0.3127,-0.3263,-0.3326,-0.3215,-0.3326,-0.3327,-0.3329,-0.3337,-0.3384,-0.3418,-0.3421,-0.3414,-0.3415,-0.3417,-0.3417,0,0,0,0,0,0,0,-0.2805,-0.2827,-0.303,-0.3018,-0.3034,-0.3108,-0.3131,-0.3154,-0.326,-0.3225,-0.3236,-0.3271,-0.3334,-0.3381,-0.3386,-0.3422,-0.3414,-0.3416,-0.3418,-0.3419,-0.3377,-0.3375,0,0,0,0,0,0,-0.2774,-0.2815,-0.3021,-0.3038,-0.2931,-0.3112,-0.3138,-0.3165,-0.3265,-0.3283,-0.327,-0.3276,-0.3376,-0.3383,-0.3389,-0.3334,-0.3417,-0.3419,-0.3421,-0.338,-0.3377,-0.3374,0,0,0,0,0,0,-0.2766,-0.2789,-0.3011,-0.2936,-0.297,-0.3116,-0.3146,-0.3171,-0.3219,-0.3302,-0.3315,-0.3293,-0.3377,-0.3385,-0.3404,-0.334,-0.342,-0.3423,-0.3383,-0.3379,-0.3375,-0.3269,0,0,0,0,0,0,-0.2757,-0.2784,-0.2782,-0.2933,-0.2973,-0.3062,-0.3147,-0.3176,-0.3242,-0.3251,-0.3325,-0.3334,-0.3378,-0.34,-0.3407,-0.3345,-0.3425,-0.3386,-0.3381,-0.3376,-0.3276,-0.3262,-0.3249,0,0,0,0,0,-0.2746,-0.2752,-0.278,-0.2805,-0.2968,-0.3061,-0.3086,-0.3191,-0.3241,-0.3239,-0.3306,-0.3331,-0.3371,-0.3402,-0.341,-0.3347,-0.3389,-0.3383,-0.3377,-0.3281,-0.3264,-0.325,0,0,0,0,0,0,-0.2651,-0.2771,-0.2804,-0.285,-0.2926,-0.3083,-0.3105,-0.3181,-0.3241,-0.3245,-0.3327,-0.3338,-0.3322,-0.335,-0.3382,-0.3315,-0.3371,-0.3366,-0.3295,-0.328,-0.3267,-0.3275,-0.3427,0,0,0,0,0,-0.2622,-0.2647,-0.2768,-0.2801,-0.2829,-0.296,-0.3012,-0.3079,-0.3165,-0.3196,-0.3253,-0.329,-0.3304,-0.3307,-0.3327,-0.3307,-0.3323,-0.3259,-0.3246,-0.3235,-0.3244,-0.3216,-0.3202,-0.3354,-0.3354,-0.3354,0,0,-0.2603,-0.2667,-0.2688,-0.2779,-0.285,-0.2896,-0.299,-0.3052,-0.3086,-0.3186,-0.3224,-0.3253,-0.3291,-0.3269,-0.326,-0.3285,-0.3193,-0.3228,-0.3218,-0.3234,-0.3209,-0.3194,-0.3182,-0.335,-0.335,-0.3351,0,0,-0.2587,-0.2618,-0.2636,-0.2684,-0.2771,-0.2839,-0.2847,-0.2972,-0.3007,-0.3048,-0.3115,-0.3113,-0.3155,-0.3165,-0.3177,-0.3098,-0.313,-0.3083,-0.3022,-0.2994,-0.2982,-0.2972,-0.2948,-0.2937,-0.307,-0.307,-0.3069,0,-0.2558,-0.26,-0.2653,-0.2682,-0.2723,-0.2804,-0.2834,-0.2877,-0.2993,-0.3014,-0.3028,-0.3086,-0.3101,-0.3091,-0.3058,-0.3067,-0.3069,-0.3083,-0.2978,-0.2969,-0.296,-0.2939,-0.2928,-0.3064,-0.3064,-0.3065,-0.3066,0,-0.2564,-0.259,-0.2598,-0.2652,-0.2686,-0.2718,-0.2782,-0.2802,-0.2845,-0.2903,-0.2901,-0.293,-0.2969,-0.2939,-0.298,-0.2918,-0.2944,-0.2971,-0.3023,-0.2939,-0.2921,-0.2911,-0.3055,-0.3057,-0.3059,-0.3061,0,0,-0.2526,-0.2592,-0.2593,-0.2611,-0.2671,-0.2708,-0.2716,-0.2762,-0.279,-0.2809,-0.2836,-0.2814,-0.2842,-0.2855,-0.2878,-0.2838,-0.2755,-0.2873,-0.2874,-0.2859,-0.2698,-0.2597,-0.2577,-0.277,-0.2769,-0.2767,-0.2701,0,-0.2516,-0.2552,-0.259,-0.2614,-0.2633,-0.2682,-0.2698,-0.2736,-0.2763,-0.2791,-0.2776,-0.28,-0.2804,-0.2816,-0.2771,-0.2788,-0.273,-0.2771,-0.2775,-0.2775,-0.2704,-0.2562,-0.2433,-0.2354,-0.2692,-0.2691,-0.269,0,-0.2502,-0.253,-0.2551,-0.2603,-0.2616,-0.2635,-0.267,-0.27,-0.2731,-0.2753,-0.2754,-0.2779,-0.274,-0.2746,-0.2689,-0.2723,-0.2692,-0.2679,-0.2677,-0.2621,-0.2656,-0.2497,-0.2324,-0.2316,-0.2676,-0.2677,-0.2678,0,-0.244,-0.2498,-0.2508,-0.2526,-0.2594,-0.2602,-0.2635,-0.268,-0.2698,-0.273,-0.2742,-0.2731,-0.2723,-0.2679,-0.2659,-0.2673,-0.2595,-0.2615,-0.2486,-0.2481,-0.239,-0.2378,-0.2219,-0.2536,-0.2537,-0.2537,-0.2537,0,-0.2405,-0.2412,-0.2479,-0.2484,-0.2495,-0.2562,-0.2574,-0.2617,-0.266,-0.2681,-0.2715,-0.2721,-0.2704,-0.2676,-0.2643,-0.2529,-0.2577,-0.2443,-0.2437,-0.2344,-0.2329,-0.2338,-0.2396,-0.2534,-0.2535,-0.2535,-0.2536,0,-0.2319,-0.2371,-0.2381,-0.2444,-0.2462,-0.2463,-0.2522,-0.2538,-0.2603,-0.2625,-0.2632,-0.2689,-0.2638,-0.2607,-0.255,-0.2494,-0.2364,-0.2367,-0.2258,-0.2237,-0.2062,-0.212,-0.2014,-0.1954,-0.2175,-0.2172,-0.2169,0,-0.2274,-0.2272,-0.2322,-0.2322,-0.2342,-0.2365,-0.2386,-0.2478,-0.2506,-0.2608,-0.261,-0.2596,-0.2542,-0.2418,-0.2308,-0.2175,-0.2232,-0.2026,-0.1996,-0.1989,-0.2052,-0.2123,-0.2088,-0.1837,-0.1832,-0.1828,-0.1824,0,-0.2166,-0.2183,-0.2188,-0.2196,-0.2209,-0.2236,-0.2282,-0.2308,-0.2431,-0.2458,-0.2499,-0.2463,-0.2331,-0.2134,-0.1979,-0.1906,-0.1969,-0.1929,-0.1946,-0.1768,-0.1814,-0.1775,-0.1973,-0.1786,-0.179,-0.1793,-0.1795,-0.1797,-0.206,-0.2032,-0.2041,-0.2031,-0.2059,-0.2089,-0.2083,-0.2155,-0.2188,-0.2166,-0.2262,-0.2062,-0.2018,-0.1734,-0.1674,-0.1532,-0.1634,-0.1488,-0.1559,-0.1632,-0.1553,-0.1654,-0.145,-0.1451,-0.1453,-0.1454,-0.1456,0,-0.1908,-0.1891,-0.1879,-0.1871,-0.1849,-0.1921,-0.199,-0.1964,-0.1962,-0.1839,-0.1766,-0.1529,-0.1402,-0.1355,-0.1288,-0.1212,-0.1209,-0.1217,-0.1298,-0.1276,-0.1358,-0.1318,-0.1046,-0.1046,-0.1046,-0.1046,-0.1046,-0.1046,-0.1825,-0.1749,-0.1741,-0.1644,-0.1653,-0.1612,-0.1631,-0.1613,-0.1509,-0.1218,-0.0939,-0.0759,-0.0942,-0.123,-0.1207,-0.1134,-0.1153,-0.1105,-0.1178,-0.1263,-0.1295,-0.1326,-0.1297,-0.1025,-0.1025,-0.1017,-0.1017,-0.1017]},{"header":{"parameterUnit":"m.s-1","parameterCategory":2,"la1":30.2991,"la2":30.254,"lo1":-89.0895,"lo2":-89.0444,"dy":0.0017,"dx":0.0017,"nx":28,"ny":28,"refTime":"2025-03-21T09:00:00:Z","depth":"0","parameterNumber":3,"parameterNumberName":"V-component_of_CURRENTS"},"data":[0,0,0,0,0,0,0,0,0,0,0,0,0,0,0,0,0,0,0,0,0,0,0,0,0,0,0,0,0,0,0,0,0,0,0,0,0,0,0,0,0,0,0,0,0,0,0,0,0,0,0,0,0,0,0,0,0,0,-0.0193,-0.0191,0,0.0036,0.0039,0.0042,0.0236,0.0237,0.0239,0.024,0.0488,0.0493,0.0498,0,0,0,0,0,0,0,0,0,0,0,0,0,-0.0313,-0.0312,-0.0194,-0.0191,-0.0189,0.0036,0.0039,0.0043,0.0235,0.0237,0.0239,0.0241,0.0486,0.0492,0.0499,0,0,0,0,0,0,0,0,0,0,0,0,0,-0.0185,-0.0312,-0.0194,-0.007,-0.0057,0.0035,0.004,0.0044,0.0235,0.0237,0.024,0.0242,0.0484,0.0492,0.0499,0.05,0,0,0.0523,0.0526,0,0,0,0,0,0,0,0,-0.0193,-0.018,-0.0091,-0.0078,-0.0064,0.0105,0.0088,0.0195,0.0234,0.013,0.024,0.0243,0.0356,0.0374,0.042,0.0511,0.0522,0.0524,0.0528,0.0532,0.0534,0,0,0,0,0,0,0,-0.0202,-0.0188,-0.0097,-0.0089,-0.0072,0.0026,0.0046,0.0111,0.0232,0.0139,0.0152,0.0168,0.0365,0.0412,0.0427,0.0526,0.0523,0.053,0.0535,0.0538,0.0746,0.0747,0,0,0,0,0,0,-0.0252,-0.0198,-0.0104,-0.009,-0.013,0.0025,0.0048,0.0053,0.0231,0.0259,0.0166,0.0176,0.0398,0.0418,0.0437,0.0451,0.0532,0.0539,0.0543,0.0745,0.0746,0.0747,0,0,0,0,0,0,-0.0256,-0.0247,-0.0113,-0.0142,-0.0119,0.0023,0.0028,0.0056,0.0105,0.025,0.028,0.0185,0.0401,0.0426,0.0501,0.0462,0.0542,0.0549,0.0744,0.0746,0.0747,0.0477,0,0,0,0,0,0,-0.0261,-0.025,-0.0258,-0.0147,-0.0119,-0.008,0.0026,0.0059,0.0108,0.0124,0.0276,0.0302,0.0405,0.0488,0.0508,0.0474,0.0555,0.0743,0.0745,0.0746,0.0485,0.0469,0.0456,0,0,0,0,0,-0.0266,-0.0284,-0.026,-0.0248,-0.0138,-0.0083,-0.006,0.0055,0.0106,0.0111,0.0227,0.0297,0.0515,0.0494,0.0517,0.0484,0.0742,0.0744,0.0746,0.0492,0.0472,0.0456,0,0,0,0,0,0,-0.0325,-0.0264,-0.0235,-0.023,-0.0177,-0.0053,-0.003,0.0031,0.0128,0.0148,0.0288,0.0322,0.0381,0.048,0.0453,0.0563,0.0648,0.0654,0.0447,0.043,0.0415,0.0395,0.0562,0,0,0,0,0,-0.0355,-0.0356,-0.0285,-0.0281,-0.0265,-0.0159,-0.0121,-0.0057,0.0039,0.0086,0.0188,0.0312,0.0407,0.0452,0.0557,0.0589,0.0663,0.06,0.0585,0.0571,0.0579,0.0615,0.0601,0.0754,0.0754,0.0754,0,0,-0.0373,-0.0343,-0.0339,-0.0296,-0.0238,-0.0221,-0.0128,-0.009,-0.0066,0.0092,0.0156,0.0254,0.041,0.0464,0.05,0.0536,0.057,0.0573,0.0559,0.0576,0.0615,0.0599,0.0585,0.0755,0.0755,0.0755,0,0,-0.0415,-0.0395,-0.041,-0.0383,-0.0332,-0.0274,-0.0281,-0.0185,-0.0134,-0.008,0.0051,0.0116,0.0265,0.0354,0.0424,0.0391,0.0492,0.0439,0.0332,0.0364,0.035,0.0338,0.04,0.0396,0.0426,0.0425,0.0425,0,-0.044,-0.0449,-0.0405,-0.0412,-0.0392,-0.0314,-0.0321,-0.0267,-0.0158,-0.0127,-0.0086,0.0115,0.0213,0.0288,0.0286,0.0347,0.0403,0.0362,0.0334,0.0325,0.0317,0.0384,0.0383,0.0413,0.0414,0.0416,0.0417,0,-0.0488,-0.0496,-0.0505,-0.0492,-0.0471,-0.0469,-0.0408,-0.0384,-0.0328,-0.0263,-0.0193,-0.007,0.0056,0.0083,0.0173,0.0182,0.0251,0.0297,0.0348,0.0283,0.0361,0.0364,0.0395,0.0399,0.0403,0.0406,0,0,-0.054,-0.054,-0.0542,-0.0554,-0.0516,-0.0506,-0.0493,-0.0453,-0.0447,-0.0366,-0.0345,-0.0217,-0.0157,-0.007,0.0028,0.0046,0.0017,0.0134,0.0142,0.0143,0.0107,0.0219,0.0235,0.004,0.0039,0.0039,0.0174,0,-0.0588,-0.0632,-0.0609,-0.064,-0.0658,-0.0601,-0.0598,-0.0555,-0.0507,-0.0474,-0.0374,-0.031,-0.0211,-0.0178,-0.0147,-0.0004,0.0018,-0.0022,0.0221,0.0229,0.029,0.024,0.0291,0.0422,0.0179,0.0179,0.018,0,-0.064,-0.0664,-0.0711,-0.0726,-0.0729,-0.0732,-0.0721,-0.0706,-0.0645,-0.0609,-0.0543,-0.0452,-0.0374,-0.0311,-0.0135,-0.0164,-0.0046,0.0044,0.0052,0.0259,0.0348,0.046,0.0439,0.0603,0.0187,0.0186,0.0186,0,-0.0704,-0.0733,-0.0777,-0.0781,-0.0785,-0.0792,-0.0783,-0.0743,-0.0758,-0.0693,-0.0716,-0.0572,-0.0527,-0.0371,-0.0144,-0.0155,0.0047,0.0059,0.0272,0.0283,0.0434,0.0459,0.0559,0.0152,0.0152,0.0152,0.0151,0,-0.0768,-0.0801,-0.0814,-0.0839,-0.0896,-0.0863,-0.091,-0.0881,-0.0877,-0.0914,-0.0793,-0.0775,-0.0552,-0.0395,-0.0187,0.0085,0.0028,0.0258,0.0319,0.0347,0.0362,0.0604,0.0664,0.0157,0.0156,0.0155,0.0154,0,-0.083,-0.0838,-0.0893,-0.0917,-0.093,-0.0965,-0.1009,-0.1066,-0.1034,-0.1087,-0.1084,-0.0939,-0.0691,-0.043,-0.0144,0.0024,0.0402,0.0387,0.0429,0.0492,0.0816,0.086,0.1073,0.12,0.0608,0.0612,0.0614,0,-0.0866,-0.0901,-0.0958,-0.1011,-0.1025,-0.1076,-0.1145,-0.1138,-0.1211,-0.1167,-0.122,-0.0997,-0.0753,-0.026,0.0073,0.0472,0.0591,0.0693,0.0672,0.0846,0.0939,0.0958,0.105,0.0765,0.0769,0.0772,0.0775,0,-0.0928,-0.0944,-0.0989,-0.1112,-0.1194,-0.1304,-0.1389,-0.146,-0.1467,-0.1405,-0.1237,-0.0996,-0.0534,-0.0019,0.0436,0.0654,0.0823,0.077,0.0926,0.1055,0.1108,0.1257,0.0683,0.0804,0.0801,0.0799,0.0797,0.0796,-0.0962,-0.1013,-0.1091,-0.1202,-0.1345,-0.1524,-0.159,-0.1575,-0.156,-0.1333,-0.1128,-0.0528,-0.0078,0.0624,0.0827,0.1166,0.1108,0.1278,0.1314,0.1316,0.1445,0.0955,0.1159,0.1158,0.1157,0.1157,0.1156,0,-0.0997,-0.1066,-0.1186,-0.1363,-0.1583,-0.1609,-0.1765,-0.1708,-0.1553,-0.1074,-0.0629,0.0272,0.0751,0.1126,0.1475,0.1683,0.1704,0.1783,0.1799,0.1866,0.1418,0.1433,0.1735,0.1735,0.1735,0.1735,0.1734,0.1734,-0.1017,-0.1122,-0.1189,-0.153,-0.1689,-0.1892,-0.1958,-0.1675,-0.1305,-0.0392,0.0395,0.1002,0.1393,0.179,0.2087,0.2119,0.2301,0.2282,0.2395,0.2052,0.2006,0.1962,0.199,0.2404,0.2405,0.2835,0.284,0.2843]}],[{"header":{"parameterUnit":"m.s-1","parameterCategory":2,"la1":30.2991,"la2":30.254,"lo1":-89.0895,"lo2":-89.0444,"dy":0.0017,"dx":0.0017,"nx":28,"ny":28,"refTime":"2025-03-21T09:00:00:Z","depth":"2","parameterNumber":2,"parameterNumberName":"U-component_of_CURRENTS"},"data":[0,0,0,0,0,0,0,0,0,0,0,0,0,0,0,0,0,0,0,0,0,0,0,0,0,0,0,0,0,0,0,0,0,0,0,0,0,0,0,0,0,0,0,0,0,0,0,0,0,0,0,0,0,0,0,0,0,0,-0.2448,-0.2449,0,-0.2475,-0.2475,-0.2475,-0.2422,-0.242,-0.2419,-0.2417,-0.2436,-0.2437,-0.2439,0,0,0,0,0,0,0,0,0,0,0,0,0,-0.2358,-0.2359,-0.2448,-0.2449,-0.2449,-0.2475,-0.2475,-0.2475,-0.2422,-0.242,-0.2418,-0.2417,-0.2435,-0.2437,-0.2439,0,0,0,0,0,0,0,0,0,0,0,0,0,-0.239,-0.236,-0.2448,-0.2427,-0.2426,-0.2475,-0.2475,-0.2475,-0.2422,-0.242,-0.2418,-0.2416,-0.2434,-0.2437,-0.244,-0.2504,0,0,-0.2449,-0.245,0,0,0,0,0,0,0,0,-0.2388,-0.2393,-0.243,-0.2429,-0.2427,-0.2445,-0.245,-0.2485,-0.2423,-0.2421,-0.2417,-0.2415,-0.2441,-0.2443,-0.245,-0.2505,-0.2506,-0.2449,-0.2451,-0.2452,-0.2453,0,0,0,0,0,0,0,-0.2386,-0.2392,-0.2456,-0.2431,-0.2429,-0.2419,-0.2421,-0.2456,-0.2442,-0.2421,-0.2418,-0.2425,-0.244,-0.2448,-0.245,-0.2506,-0.2449,-0.2451,-0.2453,-0.2454,-0.2536,-0.2537,0,0,0,0,0,0,-0.239,-0.239,-0.2456,-0.2457,-0.2404,-0.2423,-0.2425,-0.244,-0.2442,-0.2441,-0.2427,-0.2423,-0.2444,-0.2447,-0.2451,-0.2471,-0.2452,-0.2455,-0.2456,-0.2536,-0.2536,-0.2537,0,0,0,0,0,0,-0.2388,-0.2396,-0.2455,-0.2425,-0.2432,-0.2427,-0.2444,-0.2441,-0.2446,-0.2447,-0.2444,-0.2434,-0.2442,-0.2447,-0.2464,-0.2473,-0.2456,-0.2459,-0.2535,-0.2536,-0.2537,-0.2548,0,0,0,0,0,0,-0.2386,-0.2395,-0.2403,-0.2426,-0.2434,-0.2475,-0.2447,-0.2444,-0.2455,-0.2449,-0.2453,-0.2452,-0.2441,-0.2459,-0.2466,-0.2477,-0.2461,-0.2535,-0.2536,-0.2536,-0.2547,-0.2549,-0.255,0,0,0,0,0,-0.2382,-0.2396,-0.2403,-0.2411,-0.2446,-0.2476,-0.2479,-0.2465,-0.2458,-0.2461,-0.2455,-0.2451,-0.2469,-0.2463,-0.2471,-0.2482,-0.2534,-0.2535,-0.2536,-0.2546,-0.2548,-0.255,0,0,0,0,0,0,-0.2351,-0.2394,-0.2401,-0.2424,-0.2448,-0.2467,-0.2469,-0.2478,-0.248,-0.2472,-0.2468,-0.2468,-0.2481,-0.2488,-0.2481,-0.2506,-0.2498,-0.2501,-0.2503,-0.2505,-0.2507,-0.2501,-0.2463,0,0,0,0,0,-0.2356,-0.2377,-0.2416,-0.2431,-0.2447,-0.2466,-0.2477,-0.2478,-0.2488,-0.2486,-0.249,-0.2493,-0.2497,-0.2504,-0.2509,-0.2543,-0.2526,-0.2552,-0.2553,-0.2555,-0.2555,-0.253,-0.2529,-0.254,-0.254,-0.254,0,0,-0.2347,-0.2373,-0.2383,-0.2427,-0.2442,-0.2468,-0.2465,-0.2487,-0.25,-0.2493,-0.2504,-0.2504,-0.2506,-0.2518,-0.2527,-0.2525,-0.2543,-0.2556,-0.2557,-0.2557,-0.253,-0.2529,-0.2528,-0.2541,-0.2541,-0.2541,0,0,-0.2341,-0.2368,-0.2385,-0.2412,-0.2448,-0.2466,-0.2478,-0.251,-0.2511,-0.254,-0.2522,-0.2524,-0.2553,-0.254,-0.2541,-0.2566,-0.2551,-0.2574,-0.2585,-0.256,-0.2559,-0.2557,-0.2533,-0.2529,-0.2578,-0.2578,-0.2578,0,-0.2327,-0.2359,-0.2392,-0.2418,-0.2437,-0.2469,-0.2492,-0.2511,-0.2539,-0.2544,-0.2539,-0.2554,-0.2558,-0.256,-0.256,-0.2569,-0.2553,-0.2576,-0.2561,-0.2559,-0.2557,-0.2533,-0.2529,-0.2578,-0.2578,-0.2578,-0.2578,0,-0.2338,-0.2365,-0.2377,-0.2423,-0.2449,-0.2474,-0.2513,-0.2533,-0.2549,-0.2562,-0.2571,-0.2571,-0.2573,-0.258,-0.2581,-0.2576,-0.2567,-0.2562,-0.2553,-0.2556,-0.2531,-0.2526,-0.2579,-0.2579,-0.2579,-0.2579,0,0,-0.2298,-0.2371,-0.2374,-0.2396,-0.2455,-0.2476,-0.2509,-0.2542,-0.2554,-0.2576,-0.2581,-0.2591,-0.2589,-0.259,-0.2589,-0.2577,-0.2554,-0.2571,-0.2569,-0.2542,-0.2498,-0.2401,-0.2386,-0.2544,-0.2543,-0.2543,-0.2484,0,-0.2292,-0.2337,-0.2378,-0.2414,-0.2441,-0.2486,-0.2512,-0.2545,-0.2568,-0.2581,-0.2584,-0.2589,-0.2594,-0.2594,-0.2583,-0.2564,-0.2542,-0.257,-0.2503,-0.2501,-0.2409,-0.2378,-0.2198,-0.2122,-0.248,-0.2479,-0.2478,0,-0.2282,-0.2318,-0.2354,-0.2415,-0.243,-0.2455,-0.2497,-0.2527,-0.2559,-0.2576,-0.2583,-0.2587,-0.2584,-0.2581,-0.2543,-0.2561,-0.2529,-0.2511,-0.2508,-0.2409,-0.2394,-0.2177,-0.21,-0.247,-0.2471,-0.2471,-0.2472,0,-0.2228,-0.2296,-0.2321,-0.2344,-0.2419,-0.2435,-0.247,-0.2515,-0.2534,-0.2566,-0.2575,-0.2575,-0.2567,-0.2539,-0.2511,-0.2525,-0.2455,-0.2466,-0.2345,-0.2338,-0.2166,-0.2145,-0.2418,-0.2418,-0.2418,-0.2418,-0.2419,0,-0.2201,-0.2218,-0.2297,-0.2311,-0.2333,-0.2402,-0.2421,-0.246,-0.2505,-0.2511,-0.2559,-0.2548,-0.2555,-0.2522,-0.2498,-0.2397,-0.2438,-0.2331,-0.2307,-0.2165,-0.2145,-0.2437,-0.244,-0.2416,-0.2417,-0.2417,-0.2418,0,-0.2125,-0.2183,-0.2211,-0.2287,-0.2306,-0.2317,-0.2384,-0.2397,-0.2461,-0.2467,-0.2476,-0.2516,-0.2466,-0.2453,-0.24,-0.2358,-0.229,-0.2242,-0.2076,-0.2033,-0.2197,-0.2202,-0.2099,-0.2095,-0.2092,-0.2089,-0.2086,0,-0.2086,-0.2095,-0.2166,-0.2173,-0.2201,-0.2237,-0.2256,-0.2347,-0.2366,-0.2428,-0.2416,-0.2401,-0.2334,-0.2235,-0.2152,-0.2058,-0.2168,-0.1868,-0.1856,-0.2172,-0.2161,-0.2171,-0.218,-0.1639,-0.1633,-0.1628,-0.1624,0,-0.1997,-0.2023,-0.2045,-0.2067,-0.2087,-0.2113,-0.2154,-0.2166,-0.226,-0.2268,-0.225,-0.2204,-0.2104,-0.1914,-0.1817,-0.1754,-0.1872,-0.1764,-0.2112,-0.1751,-0.1733,-0.1724,-0.1749,-0.1581,-0.1585,-0.1589,-0.1591,-0.1593,-0.1909,-0.1898,-0.1927,-0.1931,-0.1958,-0.1962,-0.1922,-0.1986,-0.1985,-0.1967,-0.2033,-0.1906,-0.1848,-0.158,-0.1477,-0.1413,-0.1548,-0.1502,-0.1519,-0.154,-0.15,-0.1477,-0.1271,-0.1273,-0.1275,-0.1277,-0.1279,0,-0.1786,-0.1787,-0.1788,-0.1785,-0.1751,-0.1814,-0.182,-0.1753,-0.1693,-0.1724,-0.1677,-0.1455,-0.1307,-0.1265,-0.1074,-0.1032,-0.1043,-0.1008,-0.1029,-0.107,-0.1108,-0.1049,-0.0698,-0.0697,-0.0695,-0.0694,0,0,-0.1721,-0.1674,-0.1675,-0.1571,-0.156,-0.1451,-0.1412,-0.1346,-0.132,-0.1241,-0.1187,-0.1264,-0.1226,-0.0981,-0.0901,-0.0768,-0.092,-0.0725,-0.1185,-0.1251,-0.1287,-0.1378,-0.1331,0,0,0,0,0]},{"header":{"parameterUnit":"m.s-1","parameterCategory":2,"la1":30.2991,"la2":30.254,"lo1":-89.0895,"lo2":-89.0444,"dy":0.0017,"dx":0.0017,"nx":28,"ny":28,"refTime":"2025-03-21T09:00:00:Z","depth":"2","parameterNumber":3,"parameterNumberName":"V-component_of_CURRENTS"},"data":[0,0,0,0,0,0,0,0,0,0,0,0,0,0,0,0,0,0,0,0,0,0,0,0,0,0,0,0,0,0,0,0,0,0,0,0,0,0,0,0,0,0,0,0,0,0,0,0,0,0,0,0,0,0,0,0,0,0,-0.0337,-0.0337,0,-0.0282,-0.0282,-0.0281,-0.0237,-0.0236,-0.0235,-0.0235,-0.0122,-0.012,-0.0117,0,0,0,0,0,0,0,0,0,0,0,0,0,-0.0376,-0.0376,-0.0338,-0.0337,-0.0336,-0.0282,-0.0282,-0.0281,-0.0237,-0.0236,-0.0235,-0.0235,-0.0123,-0.012,-0.0117,0,0,0,0,0,0,0,0,0,0,0,0,0,-0.0345,-0.0376,-0.0338,-0.0306,-0.0303,-0.0283,-0.0282,-0.0281,-0.0237,-0.0236,-0.0235,-0.0234,-0.0124,-0.012,-0.0117,-0.0111,0,0,-0.0105,-0.0104,0,0,0,0,0,0,0,0,-0.0347,-0.0344,-0.0312,-0.0308,-0.0305,-0.0264,-0.0254,-0.0221,-0.0237,-0.0263,-0.0235,-0.0234,-0.0164,-0.0157,-0.0151,-0.0106,-0.0101,-0.0105,-0.0103,-0.0101,-0.01,0,0,0,0,0,0,0,-0.0349,-0.0346,-0.0317,-0.0311,-0.0307,-0.0285,-0.028,-0.0248,-0.0219,-0.0261,-0.0257,-0.0249,-0.0162,-0.0155,-0.0148,-0.0099,-0.0105,-0.0102,-0.01,-0.0098,-0.0024,-0.0024,0,0,0,0,0,0,-0.0356,-0.0348,-0.0319,-0.0315,-0.0323,-0.0285,-0.028,-0.0279,-0.0221,-0.0211,-0.025,-0.0247,-0.0162,-0.0153,-0.0144,-0.0112,-0.0101,-0.0098,-0.0096,-0.0024,-0.0024,-0.0024,0,0,0,0,0,0,-0.0357,-0.0354,-0.0321,-0.0329,-0.0323,-0.0286,-0.0285,-0.0278,-0.0268,-0.0213,-0.0202,-0.0246,-0.0161,-0.0149,-0.0118,-0.0108,-0.0096,-0.0093,-0.0023,-0.0024,-0.0024,-0.0063,0,0,0,0,0,0,-0.0359,-0.0355,-0.0361,-0.033,-0.0323,-0.0312,-0.0286,-0.0278,-0.0264,-0.026,-0.0206,-0.0195,-0.0159,-0.0124,-0.0115,-0.0103,-0.009,-0.0023,-0.0023,-0.0024,-0.0061,-0.0064,-0.0067,0,0,0,0,0,-0.036,-0.0377,-0.0362,-0.0358,-0.0331,-0.0312,-0.0307,-0.0278,-0.0265,-0.0265,-0.023,-0.0196,-0.012,-0.0122,-0.0111,-0.0097,-0.0023,-0.0023,-0.0024,-0.006,-0.0064,-0.0067,0,0,0,0,0,0,-0.0399,-0.0372,-0.0356,-0.0364,-0.0339,-0.0304,-0.0305,-0.0283,-0.0258,-0.0254,-0.0201,-0.0188,-0.0156,-0.0128,-0.0131,-0.0079,-0.0065,-0.0063,-0.0096,-0.0099,-0.0102,-0.0111,-0.0087,0,0,0,0,0,-0.041,-0.0413,-0.0379,-0.0385,-0.0376,-0.0341,-0.0331,-0.0311,-0.0282,-0.027,-0.0229,-0.0188,-0.0152,-0.0128,-0.0094,-0.0068,-0.0031,-0.0052,-0.0055,-0.0058,-0.0059,-0.0,0.0003,-0.0026,-0.0026,-0.0026,0,0,-0.0425,-0.0411,-0.0413,-0.0393,-0.0374,-0.037,-0.0334,-0.0324,-0.0314,-0.0261,-0.0239,-0.0199,-0.0149,-0.0118,-0.01,-0.009,-0.0031,-0.0058,-0.0061,-0.006,-0.0,0.0003,0.0005,-0.0026,-0.0026,-0.0026,0,0,-0.0461,-0.0447,-0.0461,-0.0445,-0.0421,-0.0397,-0.0395,-0.036,-0.0337,-0.0313,-0.0269,-0.0224,-0.0176,-0.0129,-0.0102,-0.0102,-0.0052,-0.0094,-0.0109,-0.0053,-0.0049,-0.0046,0.0003,0.001,-0.0092,-0.0092,-0.0092,0,-0.0481,-0.0492,-0.0462,-0.047,-0.0461,-0.0412,-0.0422,-0.0393,-0.035,-0.0328,-0.0313,-0.0225,-0.0178,-0.0126,-0.0124,-0.0105,-0.0074,-0.0099,-0.0056,-0.0052,-0.0048,0.0002,0.0011,-0.0094,-0.0093,-0.0093,-0.0093,0,-0.0523,-0.053,-0.0538,-0.0529,-0.0516,-0.0518,-0.0473,-0.0452,-0.0417,-0.0378,-0.0323,-0.0258,-0.0203,-0.0177,-0.0149,-0.0097,-0.0084,-0.0069,-0.0046,-0.0047,0.0005,0.0015,-0.0096,-0.0096,-0.0095,-0.0095,0,0,-0.0571,-0.057,-0.0572,-0.0578,-0.0549,-0.0544,-0.0524,-0.0486,-0.0467,-0.0407,-0.0372,-0.0294,-0.025,-0.0217,-0.0164,-0.0108,-0.0046,-0.0082,-0.0079,-0.0034,0.0072,0.0101,0.0115,-0.0026,-0.0025,-0.0023,0.0096,0,-0.0611,-0.0648,-0.0627,-0.0648,-0.0662,-0.0611,-0.0596,-0.0552,-0.0499,-0.0451,-0.0362,-0.0311,-0.0267,-0.0238,-0.0175,-0.008,-0.0021,-0.0081,0.0066,0.007,0.0097,0.0128,0.0113,0.022,0.0107,0.0109,0.011,0,-0.0657,-0.0676,-0.0714,-0.071,-0.0709,-0.0708,-0.067,-0.0648,-0.0562,-0.0519,-0.0446,-0.0375,-0.0278,-0.0245,-0.0081,-0.0125,-0.0034,0.0043,0.0049,0.0097,0.0119,0.0204,0.0244,0.0128,0.0126,0.0125,0.0124,0,-0.0713,-0.0731,-0.0765,-0.0766,-0.0754,-0.0753,-0.0737,-0.0672,-0.0645,-0.0559,-0.0518,-0.0407,-0.0335,-0.0217,-0.0057,-0.007,0.0125,0.013,0.0244,0.0247,0.0275,0.0278,0.0247,0.0247,0.0246,0.0246,0.0246,0,-0.0767,-0.079,-0.0796,-0.0817,-0.0846,-0.0811,-0.0814,-0.0777,-0.071,-0.0662,-0.0558,-0.0485,-0.0323,-0.0188,-0.0063,0.0127,0.0124,0.0252,0.0286,0.026,0.026,0.0208,0.0202,0.0251,0.025,0.0249,0.0248,0,-0.0822,-0.0826,-0.0866,-0.0873,-0.0878,-0.0899,-0.0878,-0.0866,-0.0794,-0.0725,-0.0696,-0.0535,-0.0357,-0.0188,0.0024,0.0131,0.0298,0.0366,0.032,0.0347,0.038,0.0371,0.0501,0.0503,0.0505,0.0507,0.0508,0,-0.0854,-0.0883,-0.092,-0.0948,-0.0955,-0.0974,-0.0979,-0.0924,-0.0888,-0.074,-0.0696,-0.0518,-0.0366,-0.0056,0.015,0.0373,0.0366,0.0491,0.047,0.039,0.041,0.0397,0.0385,0.0493,0.0494,0.0495,0.0496,0,-0.0909,-0.0921,-0.0954,-0.1021,-0.1045,-0.1058,-0.1044,-0.1026,-0.0923,-0.0843,-0.0683,-0.0554,-0.0249,0.0003,0.028,0.0407,0.0447,0.0516,0.0468,0.0423,0.039,0.0407,0.0394,0.0504,0.0503,0.0502,0.0502,0.0502,-0.0941,-0.0982,-0.1027,-0.1083,-0.1111,-0.1107,-0.1092,-0.1046,-0.0975,-0.0813,-0.0689,-0.0475,-0.0226,0.0168,0.0375,0.0553,0.0543,0.0594,0.0589,0.0583,0.0552,0.0524,0.0657,0.0657,0.0657,0.0657,0.0657,0,-0.0976,-0.102,-0.1083,-0.1124,-0.1141,-0.1147,-0.1105,-0.1047,-0.0946,-0.0806,-0.0647,-0.0352,-0.0068,0.0174,0.0471,0.0653,0.0629,0.0676,0.0613,0.0605,0.0598,0.0565,0.0675,0.0675,0.0676,0.0676,0,0,-0.0995,-0.1061,-0.1095,-0.113,-0.1146,-0.1126,-0.109,-0.0997,-0.0881,-0.0719,-0.0574,-0.0378,-0.0061,0.0152,0.0384,0.0539,0.0521,0.055,0.052,0.0412,0.0402,0.054,0.0479,0,0,0,0,0]}],[{"header":{"parameterUnit":"m.s-1","parameterCategory":2,"la1":30.2991,"la2":30.254,"lo1":-89.0895,"lo2":-89.0444,"dy":0.0017,"dx":0.0017,"nx":28,"ny":28,"refTime":"2025-03-21T09:00:00:Z","depth":"4","parameterNumber":2,"parameterNumberName":"U-component_of_CURRENTS"},"data":[0,0,0,0,0,0,0,0,0,0,0,0,0,0,0,0,0,0,0,0,0,0,0,0,0,0,0,0,0,0,0,0,0,0,0,0,0,0,0,0,0,0,0,0,0,0,0,0,0,0,0,0,0,0,0,0,0,0,-0.1716,-0.1716,0,-0.1769,-0.1769,-0.177,-0.1783,-0.1783,-0.1783,-0.1783,-0.1835,-0.1836,-0.1838,0,0,0,0,0,0,0,0,0,0,0,0,0,-0.1623,-0.1625,-0.1716,-0.1716,-0.1717,-0.1768,-0.1769,-0.177,-0.1783,-0.1783,-0.1783,-0.1782,-0.1834,-0.1836,-0.1838,0,0,0,0,0,0,0,0,0,0,0,0,0,-0.1668,-0.1625,-0.1716,-0.1731,-0.1733,-0.1768,-0.1769,-0.177,-0.1783,-0.1783,-0.1783,-0.1782,-0.1833,-0.1836,-0.1838,-0.1861,0,0,-0.1846,-0.1847,0,0,0,0,0,0,0,0,-0.1665,-0.1671,-0.1728,-0.173,-0.1732,-0.177,-0.1756,-0.1801,-0.1784,-0.1763,-0.1783,-0.1782,-0.1814,-0.1818,-0.1827,-0.1863,-0.1865,-0.1846,-0.1847,-0.1848,-0.1849,0,0,0,0,0,0,0,-0.1662,-0.1669,-0.1736,-0.1729,-0.1731,-0.1734,-0.174,-0.1764,-0.1789,-0.1765,-0.1766,-0.1774,-0.1815,-0.1825,-0.1829,-0.1866,-0.1846,-0.1848,-0.1849,-0.185,-0.1948,-0.1949,0,0,0,0,0,0,-0.1658,-0.1666,-0.1734,-0.1738,-0.1698,-0.1736,-0.1742,-0.1757,-0.1789,-0.1794,-0.1774,-0.1774,-0.1821,-0.1826,-0.1831,-0.19,-0.1848,-0.1851,-0.1852,-0.1947,-0.1948,-0.1949,0,0,0,0,0,0,-0.1656,-0.1664,-0.1732,-0.1703,-0.1712,-0.1738,-0.1755,-0.1759,-0.1795,-0.1796,-0.18,-0.1809,-0.1821,-0.1827,-0.1869,-0.19,-0.1852,-0.1854,-0.1945,-0.1947,-0.1948,-0.2013,0,0,0,0,0,0,-0.1653,-0.1663,-0.1687,-0.1703,-0.1713,-0.1767,-0.1755,-0.176,-0.1799,-0.18,-0.1828,-0.183,-0.1821,-0.1865,-0.1871,-0.1903,-0.1856,-0.1944,-0.1946,-0.1948,-0.2009,-0.2017,-0.2023,0,0,0,0,0,-0.165,-0.1674,-0.1688,-0.1696,-0.174,-0.1768,-0.1775,-0.179,-0.1801,-0.1822,-0.1839,-0.1831,-0.1882,-0.1869,-0.1875,-0.1908,-0.1943,-0.1945,-0.1948,-0.2006,-0.2015,-0.2023,0,0,0,0,0,0,-0.164,-0.1678,-0.1693,-0.1727,-0.1755,-0.1771,-0.1796,-0.1812,-0.1844,-0.1854,-0.1853,-0.1858,-0.1902,-0.1899,-0.1884,-0.194,-0.1909,-0.1913,-0.1951,-0.1959,-0.1966,-0.1961,-0.1858,0,0,0,0,0,-0.1652,-0.1684,-0.1714,-0.1743,-0.1763,-0.179,-0.181,-0.1825,-0.1848,-0.1863,-0.1882,-0.1899,-0.1915,-0.1933,-0.1944,-0.1987,-0.1961,-0.2009,-0.2016,-0.2021,-0.2021,-0.2008,-0.2013,-0.1957,-0.1957,-0.1957,0,0,-0.1656,-0.1681,-0.17,-0.1745,-0.177,-0.1802,-0.1802,-0.1842,-0.1872,-0.1864,-0.192,-0.1929,-0.1931,-0.1968,-0.1988,-0.1973,-0.2024,-0.2025,-0.203,-0.2026,-0.2011,-0.2016,-0.2021,-0.1959,-0.1959,-0.1959,0,0,-0.1664,-0.1706,-0.1733,-0.1764,-0.181,-0.183,-0.1851,-0.1891,-0.1916,-0.1968,-0.1962,-0.1991,-0.203,-0.2029,-0.2033,-0.2088,-0.2059,-0.2098,-0.2135,-0.2123,-0.2127,-0.213,-0.2103,-0.2104,-0.2104,-0.2104,-0.2104,0,-0.1669,-0.1708,-0.1744,-0.1776,-0.1806,-0.1847,-0.1881,-0.1915,-0.1964,-0.1983,-0.1993,-0.2042,-0.2054,-0.2079,-0.21,-0.2104,-0.2086,-0.2106,-0.2131,-0.2133,-0.2136,-0.2107,-0.2107,-0.2107,-0.2107,-0.2106,-0.2106,0,-0.1687,-0.1733,-0.1754,-0.1811,-0.1848,-0.1887,-0.1936,-0.1981,-0.2023,-0.2045,-0.2095,-0.211,-0.213,-0.2147,-0.2148,-0.2174,-0.2152,-0.2139,-0.2109,-0.2145,-0.2113,-0.2112,-0.2112,-0.2111,-0.211,-0.2109,0,0,-0.1655,-0.1749,-0.1759,-0.1797,-0.1874,-0.1903,-0.1966,-0.202,-0.2055,-0.2109,-0.2141,-0.2187,-0.2194,-0.2199,-0.2203,-0.2207,-0.2219,-0.2192,-0.219,-0.2163,-0.2183,-0.2026,-0.2009,-0.2213,-0.2213,-0.2213,-0.2154,0,-0.166,-0.1725,-0.1773,-0.1843,-0.1883,-0.1946,-0.1995,-0.2051,-0.2099,-0.2141,-0.2168,-0.22,-0.2213,-0.2229,-0.2238,-0.2224,-0.2218,-0.2235,-0.2154,-0.2151,-0.2005,-0.2003,-0.2214,-0.2153,-0.2152,-0.2152,-0.2152,0,-0.1653,-0.1704,-0.1773,-0.1865,-0.1889,-0.1939,-0.2022,-0.2071,-0.2134,-0.2167,-0.2204,-0.2219,-0.2248,-0.2248,-0.2239,-0.2251,-0.2225,-0.2209,-0.2206,-0.2033,-0.199,-0.2109,-0.2148,-0.2148,-0.2149,-0.2149,-0.2149,0,-0.16,-0.17,-0.1758,-0.1792,-0.19,-0.1947,-0.2005,-0.2079,-0.2115,-0.2181,-0.2202,-0.2234,-0.2246,-0.2236,-0.2215,-0.2232,-0.2179,-0.2188,-0.2016,-0.2005,-0.2138,-0.2135,-0.2164,-0.2164,-0.2164,-0.2164,-0.2164,0,-0.1569,-0.1619,-0.1746,-0.1778,-0.1844,-0.193,-0.1994,-0.2053,-0.212,-0.2138,-0.221,-0.2206,-0.2246,-0.2222,-0.2206,-0.2089,-0.2164,-0.2009,-0.1973,-0.2167,-0.2168,-0.2137,-0.2134,-0.2162,-0.2162,-0.2163,-0.2163,0,-0.1491,-0.1579,-0.1652,-0.1781,-0.1822,-0.187,-0.1981,-0.201,-0.2094,-0.2117,-0.2136,-0.2184,-0.2142,-0.2144,-0.2108,-0.2045,-0.1971,-0.1909,-0.2101,-0.208,-0.1814,-0.1816,-0.1714,-0.1707,-0.1702,-0.1698,-0.1694,0,-0.1452,-0.1486,-0.1633,-0.1673,-0.1737,-0.1823,-0.1867,-0.1979,-0.2001,-0.2074,-0.2059,-0.2057,-0.2064,-0.1878,-0.1911,-0.183,-0.1812,-0.1769,-0.1809,-0.1788,-0.1765,-0.1776,-0.1785,-0.1686,-0.1685,-0.1683,-0.1682,0,-0.137,-0.144,-0.1501,-0.1586,-0.1653,-0.171,-0.1785,-0.1787,-0.1887,-0.198,-0.1911,-0.1866,-0.1802,-0.1758,-0.1691,-0.1648,-0.1801,-0.1715,-0.1727,-0.1764,-0.1753,-0.1738,-0.1753,-0.1664,-0.1666,-0.1668,-0.1669,0,-0.1305,-0.1329,-0.1418,-0.1473,-0.1552,-0.1568,-0.1627,-0.164,-0.1674,-0.1762,-0.1727,-0.1727,-0.1772,-0.1659,-0.1606,-0.1536,-0.1524,-0.1492,-0.1515,-0.1536,-0.1503,-0.1466,-0.124,0,0,0,0,0,-0.123,-0.1245,-0.1292,-0.1349,-0.1417,-0.1454,-0.1553,-0.1611,-0.1711,-0.1609,-0.1663,-0.1592,-0.1498,-0.1507,-0.1393,-0.1529,-0.1537,-0.1393,-0.1517,-0.1563,-0.1584,-0.1562,0,0,0,0,0,0,-0.1183,-0.1228,-0.1251,-0.1227,-0.1228,-0.1282,-0.1334,-0.1404,-0.1362,-0.1462,-0.1413,-0.1485,-0.1414,-0.1515,-0.135,-0.1351,-0.1395,-0.1405,-0.1401,-0.1551,-0.157,-0.1587,-0.1572,0,0,0,0,0]},{"header":{"parameterUnit":"m.s-1","parameterCategory":2,"la1":30.2991,"la2":30.254,"lo1":-89.0895,"lo2":-89.0444,"dy":0.0017,"dx":0.0017,"nx":28,"ny":28,"refTime":"2025-03-21T09:00:00:Z","depth":"4","parameterNumber":3,"parameterNumberName":"V-component_of_CURRENTS"},"data":[0,0,0,0,0,0,0,0,0,0,0,0,0,0,0,0,0,0,0,0,0,0,0,0,0,0,0,0,0,0,0,0,0,0,0,0,0,0,0,0,0,0,0,0,0,0,0,0,0,0,0,0,0,0,0,0,0,0,-0.0267,-0.0267,0,-0.0242,-0.0242,-0.0242,-0.0214,-0.0214,-0.0213,-0.0213,-0.0151,-0.015,-0.0149,0,0,0,0,0,0,0,0,0,0,0,0,0,-0.0275,-0.0275,-0.0267,-0.0267,-0.0266,-0.0242,-0.0242,-0.0242,-0.0214,-0.0214,-0.0213,-0.0213,-0.0152,-0.015,-0.0149,0,0,0,0,0,0,0,0,0,0,0,0,0,-0.0264,-0.0275,-0.0267,-0.0249,-0.0247,-0.0242,-0.0242,-0.0242,-0.0215,-0.0214,-0.0213,-0.0212,-0.0152,-0.015,-0.0148,-0.0152,0,0,-0.0143,-0.0142,0,0,0,0,0,0,0,0,-0.0264,-0.0263,-0.0252,-0.025,-0.0248,-0.023,-0.0222,-0.0209,-0.0215,-0.0228,-0.0213,-0.0212,-0.0174,-0.017,-0.0169,-0.0149,-0.0146,-0.0143,-0.0142,-0.0141,-0.014,0,0,0,0,0,0,0,-0.0265,-0.0264,-0.0258,-0.0252,-0.0249,-0.0237,-0.0235,-0.022,-0.0205,-0.0227,-0.0224,-0.0221,-0.0173,-0.0171,-0.0167,-0.0145,-0.0143,-0.0141,-0.014,-0.0139,-0.0115,-0.0115,0,0,0,0,0,0,-0.0268,-0.0265,-0.0259,-0.0257,-0.0254,-0.0237,-0.0235,-0.0237,-0.0206,-0.0201,-0.0221,-0.0219,-0.0174,-0.0169,-0.0165,-0.0147,-0.0141,-0.0139,-0.0138,-0.0115,-0.0115,-0.0116,0,0,0,0,0,0,-0.0269,-0.0268,-0.026,-0.026,-0.0257,-0.0238,-0.0241,-0.0237,-0.0235,-0.0202,-0.0196,-0.0222,-0.0174,-0.0167,-0.0156,-0.0145,-0.0138,-0.0137,-0.0114,-0.0115,-0.0115,-0.0124,0,0,0,0,0,0,-0.0269,-0.0269,-0.0276,-0.026,-0.0258,-0.026,-0.0241,-0.0237,-0.0233,-0.0231,-0.0201,-0.0195,-0.0173,-0.0159,-0.0154,-0.0143,-0.0135,-0.0114,-0.0114,-0.0115,-0.0124,-0.0125,-0.0127,0,0,0,0,0,-0.027,-0.0285,-0.0277,-0.0276,-0.0267,-0.026,-0.0258,-0.0242,-0.0234,-0.0237,-0.0219,-0.0196,-0.016,-0.0158,-0.0152,-0.014,-0.0113,-0.0114,-0.0115,-0.0123,-0.0125,-0.0127,0,0,0,0,0,0,-0.0293,-0.0283,-0.0274,-0.0285,-0.0274,-0.0255,-0.026,-0.0247,-0.0237,-0.0236,-0.0204,-0.0196,-0.0181,-0.0168,-0.0166,-0.0138,-0.0132,-0.0132,-0.014,-0.0142,-0.0143,-0.0139,-0.0134,0,0,0,0,0,-0.0302,-0.031,-0.0293,-0.0302,-0.0299,-0.028,-0.0277,-0.0266,-0.0252,-0.0247,-0.0224,-0.0203,-0.0182,-0.0168,-0.0152,-0.014,-0.0104,-0.0129,-0.0131,-0.0132,-0.0127,-0.0058,-0.0051,-0.0119,-0.0119,-0.0119,0,0,-0.0314,-0.0309,-0.0314,-0.0307,-0.0299,-0.03,-0.0277,-0.0277,-0.0272,-0.0242,-0.0232,-0.021,-0.0182,-0.0165,-0.0156,-0.015,-0.0098,-0.0133,-0.0134,-0.0128,-0.0058,-0.0051,-0.0045,-0.0119,-0.0119,-0.0119,0,0,-0.0342,-0.0338,-0.0352,-0.0345,-0.0336,-0.0322,-0.0323,-0.0306,-0.0291,-0.0283,-0.0255,-0.0223,-0.0206,-0.0168,-0.015,-0.0152,-0.0111,-0.0157,-0.0154,-0.0087,-0.008,-0.0074,-0.0031,-0.002,-0.0153,-0.0153,-0.0153,0,-0.0357,-0.0371,-0.0355,-0.0364,-0.0362,-0.0334,-0.0344,-0.0327,-0.0306,-0.0288,-0.0284,-0.0226,-0.02,-0.0153,-0.0155,-0.0151,-0.0121,-0.0146,-0.0086,-0.0079,-0.0072,-0.0029,-0.0017,-0.0154,-0.0154,-0.0154,-0.0154,0,-0.039,-0.0401,-0.0409,-0.041,-0.0405,-0.0411,-0.0383,-0.037,-0.035,-0.0322,-0.0278,-0.0236,-0.0196,-0.0182,-0.017,-0.011,-0.0108,-0.0096,-0.0076,-0.0065,-0.0022,-0.0009,-0.0155,-0.0155,-0.0154,-0.0154,0,0,-0.0422,-0.0432,-0.0435,-0.0442,-0.043,-0.0429,-0.0416,-0.0388,-0.0366,-0.033,-0.029,-0.0241,-0.0206,-0.0184,-0.015,-0.009,-0.0017,-0.0079,-0.0075,-0.0027,0.0114,0.0072,0.0081,0.0006,0.0008,0.001,0.0121,0,-0.0451,-0.0486,-0.0476,-0.0497,-0.0509,-0.0477,-0.0464,-0.0431,-0.039,-0.0342,-0.0271,-0.0228,-0.021,-0.0186,-0.0122,-0.0045,0.0017,-0.0049,0.0089,0.0092,0.0062,0.0095,0.0018,0.0131,0.0134,0.0136,0.0137,0,-0.0484,-0.0503,-0.0538,-0.0537,-0.0537,-0.0544,-0.0508,-0.0491,-0.0412,-0.0375,-0.0307,-0.025,-0.0162,-0.0146,0.0004,-0.0043,0.0032,0.0096,0.0102,0.0077,0.0074,0.012,0.0161,0.0159,0.0157,0.0156,0.0154,0,-0.0517,-0.054,-0.0572,-0.0576,-0.0572,-0.0575,-0.0566,-0.0507,-0.0475,-0.0392,-0.0347,-0.0244,-0.0182,-0.0074,0.0041,0.003,0.0208,0.0214,0.0251,0.0248,0.0258,0.025,0.0335,0.0335,0.0334,0.0334,0.0334,0,-0.0548,-0.0572,-0.0596,-0.0614,-0.064,-0.0618,-0.0612,-0.0582,-0.0511,-0.0457,-0.037,-0.0298,-0.0158,-0.0044,0.0052,0.018,0.0219,0.0261,0.0282,0.0247,0.0237,0.0266,0.0257,0.0338,0.0337,0.0337,0.0336,0,-0.0577,-0.0594,-0.0633,-0.0653,-0.0662,-0.0682,-0.0663,-0.0637,-0.0573,-0.0495,-0.0467,-0.0324,-0.0185,-0.005,0.0134,0.0192,0.032,0.0357,0.0297,0.031,0.0313,0.0302,0.0418,0.0418,0.0417,0.0417,0.0417,0,-0.0592,-0.062,-0.0674,-0.0702,-0.0719,-0.0738,-0.0736,-0.0684,-0.0637,-0.0504,-0.0455,-0.0313,-0.0211,0.0014,0.0139,0.0314,0.0334,0.0393,0.0367,0.0317,0.0327,0.0315,0.0305,0.0416,0.0416,0.0416,0.0416,0,-0.0619,-0.0647,-0.0681,-0.0746,-0.0772,-0.0773,-0.0759,-0.0727,-0.0633,-0.058,-0.0429,-0.0301,-0.0144,0.0011,0.0138,0.0266,0.0349,0.039,0.0392,0.0368,0.0317,0.0323,0.0313,0.0415,0.0415,0.0415,0.0415,0,-0.0636,-0.0673,-0.0725,-0.0773,-0.0803,-0.0783,-0.0778,-0.0701,-0.0646,-0.0494,-0.0453,-0.0279,-0.0179,-0.0012,0.0111,0.0218,0.0247,0.0278,0.0286,0.0289,0.0204,0.0117,0.0185,0,0,0,0,0,-0.0645,-0.0686,-0.074,-0.0775,-0.0796,-0.0806,-0.0768,-0.0737,-0.0652,-0.0552,-0.0495,-0.035,-0.015,-0.0058,0.0044,0.0093,0.0252,0.0214,0.0288,0.0409,0.041,0.0327,0,0,0,0,0,0,-0.0653,-0.0712,-0.0741,-0.0754,-0.0774,-0.0771,-0.0749,-0.0695,-0.0623,-0.0539,-0.0435,-0.0351,-0.0164,-0.022,0.0035,0.0071,0.0127,0.0313,0.0315,0.0408,0.0409,0.041,0.0326,0,0,0,0,0]}]]